| time (UTC) | temp F | wind direction | speed knots | gust knots | rain 1hr in | rain 24hr in | rain mn in | humidity % | barometer mb |
| 20260831010110 | 63 | 303 | 0.0 | 0.0 | 0.22 | 0.22 | 0.22 | 92 | 1014.6 |
| 20260831004555 | 63 | 288 | 0.9 | 7.8 | 0.18 | 0.18 | 0.18 | 89 | 1014.7 |
| 20260831003103 | 66 | 76 | 0.0 | 0.0 | 0.00 | 0.00 | 0.00 | 82 | 1012.9 |
| 20260831001550 | 66 | 76 | 0.0 | 0.9 | 0.00 | 0.00 | 0.00 | 82 | 1012.6 |
| 20260831000052 | 66 | 76 | 0.0 | 1.7 | 0.00 | 0.00 | 0.00 | 82 | 1012.5 |
| 20260830234554 | 66 | 74 | 0.0 | 1.7 | 0.00 | 0.00 | 0.00 | 82 | 1012.8 |
| 20260830233047 | 66 | 74 | 0.0 | 1.7 | 0.00 | 0.00 | 0.00 | 82 | 1012.9 |
| 20260830231548 | 65 | 78 | 0.0 | 1.7 | 0.00 | 0.00 | 0.00 | 83 | 1013.0 |
| 20260830230047 | 64 | 355 | 0.0 | 0.0 | 0.00 | 0.00 | 0.00 | 85 | 1013.4 |
| 20260830224550 | 63 | 355 | 0.0 | 0.0 | 0.00 | 0.00 | 0.00 | 85 | 1013.5 |
| 20260830223038 | 64 | 355 | 0.0 | 0.0 | 0.00 | 0.00 | 0.00 | 84 | 1013.6 |
| 20260830221539 | 64 | 355 | 0.0 | 0.0 | 0.00 | 0.00 | 0.00 | 84 | 1013.7 |
| 20260830220037 | 64 | 355 | 0.0 | 0.0 | 0.00 | 0.00 | 0.00 | 85 | 1013.7 |
| 20260830214534 | 64 | 355 | 0.0 | 0.0 | 0.00 | 0.00 | 0.00 | 84 | 1014.0 |
| 20260830213033 | 64 | 355 | 0.0 | 0.0 | 0.00 | 0.00 | 0.00 | 83 | 1014.0 |
| 20260830211533 | 64 | 348 | 0.0 | 0.0 | 0.00 | 0.00 | 0.00 | 84 | 1013.9 |
| 20260830210032 | 63 | 286 | 0.0 | 0.9 | 0.00 | 0.00 | 0.00 | 84 | 1013.9 |
| 20260830204535 | 64 | 286 | 0.0 | 0.0 | 0.00 | 0.00 | 0.00 | 82 | 1014.0 |
| 20260830203032 | 65 | 286 | 0.0 | 0.0 | 0.00 | 0.00 | 0.00 | 82 | 1014.2 |
| 20260830201530 | 65 | 286 | 0.0 | 0.0 | 0.00 | 0.00 | 0.00 | 83 | 1014.1 |
| 20260830200031 | 65 | 286 | 0.0 | 0.0 | 0.00 | 0.00 | 0.00 | 83 | 1014.2 |
| 20260830194530 | 66 | 286 | 0.0 | 0.0 | 0.00 | 0.00 | 0.00 | 82 | 1014.2 |
| 20260830193030 | 67 | 286 | 0.0 | 0.0 | 0.00 | 0.00 | 0.00 | 81 | 1014.3 |
| 20260830191529 | 68 | 286 | 0.0 | 0.0 | 0.00 | 0.00 | 0.00 | 79 | 1014.3 |
| 20260830190034 | 68 | 286 | 0.0 | 0.0 | 0.00 | 0.00 | 0.00 | 78 | 1014.3 |
| 20260830184529 | 69 | 286 | 0.0 | 0.0 | 0.00 | 0.00 | 0.00 | 76 | 1014.2 |
| 20260830183028 | 70 | 286 | 0.0 | 0.0 | 0.00 | 0.00 | 0.00 | 73 | 1014.0 |
| 20260830181528 | 71 | 286 | 0.0 | 0.0 | 0.00 | 0.00 | 0.00 | 72 | 1014.0 |
| 20260830180026 | 73 | 286 | 0.0 | 0.0 | 0.00 | 0.00 | 0.00 | 69 | 1014.0 |
| 20260830174530 | 74 | 286 | 0.0 | 0.0 | 0.00 | 0.00 | 0.00 | 67 | 1013.9 |
| 20260830173033 | 74 | 286 | 0.0 | 0.0 | 0.00 | 0.00 | 0.00 | 65 | 1013.9 |
| 20260830171526 | 75 | 286 | 0.0 | 0.9 | 0.00 | 0.00 | 0.00 | 64 | 1013.9 |
| 20260830170025 | 75 | 286 | 0.0 | 0.0 | 0.00 | 0.00 | 0.00 | 63 | 1013.9 |
| 20260830164530 | 76 | 286 | 0.0 | 0.9 | 0.00 | 0.00 | 0.00 | 63 | 1013.9 |
| 20260830163025 | 76 | 286 | 0.0 | 0.0 | 0.00 | 0.00 | 0.00 | 60 | 1013.9 |
| 20260830161523 | 76 | 286 | 0.0 | 0.9 | 0.00 | 0.00 | 0.00 | 62 | 1013.9 |
| 20260830160024 | 77 | 278 | 0.0 | 1.7 | 0.00 | 0.00 | 0.00 | 60 | 1014.1 |
| 20260830154522 | 77 | 294 | 0.0 | 1.7 | 0.00 | 0.00 | 0.00 | 60 | 1014.1 |
| 20260830153039 | 77 | 294 | 0.0 | 1.7 | 0.00 | 0.00 | 0.00 | 61 | 1014.1 |
| 20260830151520 | 76 | 294 | 0.0 | 2.6 | 0.00 | 0.00 | 0.00 | 63 | 1014.1 |
| 20260830150019 | 77 | 248 | 0.0 | 2.6 | 0.00 | 0.00 | 0.00 | 63 | 1014.2 |
| 20260830144520 | 76 | 250 | 0.0 | 1.7 | 0.00 | 0.00 | 0.00 | 65 | 1014.2 |
| 20260830143020 | 76 | 232 | 0.0 | 3.5 | 0.00 | 0.00 | 0.00 | 64 | 1014.2 |
| 20260830141520 | 78 | 236 | 0.0 | 3.5 | 0.00 | 0.00 | 0.00 | 62 | 1014.2 |
| 20260830140017 | 77 | 234 | 0.0 | 2.6 | 0.00 | 0.00 | 0.00 | 64 | 1014.2 |
| 20260830134517 | 77 | 234 | 0.0 | 2.6 | 0.00 | 0.00 | 0.00 | 62 | 1014.3 |
| 20260830133016 | 77 | 219 | 0.0 | 3.5 | 0.00 | 0.00 | 0.00 | 63 | 1014.4 |
| 20260830131515 | 76 | 231 | 0.0 | 2.6 | 0.00 | 0.00 | 0.00 | 65 | 1014.6 |
| 20260830130013 | 77 | 21 | 0.0 | 3.5 | 0.00 | 0.00 | 0.00 | 63 | 1014.6 |
| 20260830124511 | 77 | 271 | 0.0 | 4.3 | 0.00 | 0.00 | 0.00 | 61 | 1014.7 |
| 20260830123010 | 78 | 321 | 0.0 | 2.6 | 0.00 | 0.00 | 0.00 | 60 | 1014.7 |
| 20260830121508 | 76 | 302 | 0.0 | 2.6 | 0.00 | 0.00 | 0.00 | 62 | 1014.8 |
| 20260830120007 | 77 | 254 | 0.0 | 0.9 | 0.00 | 0.00 | 0.00 | 62 | 1014.8 |
| 20260830114506 | 76 | 292 | 0.0 | 2.6 | 0.00 | 0.00 | 0.00 | 63 | 1014.8 |
| 20260830113004 | 76 | 298 | 0.0 | 2.6 | 0.00 | 0.00 | 0.00 | 63 | 1015.1 |
| 20260830111600 | 74 | 281 | 0.9 | 3.5 | 0.00 | 0.00 | 0.00 | 66 | 1015.1 |
| 20260830110101 | 73 | 289 | 0.0 | 1.7 | 0.00 | 0.00 | 0.00 | 67 | 1015.2 |
| 20260830104609 | 74 | 291 | 0.0 | 2.6 | 0.00 | 0.00 | 0.00 | 67 | 1015.3 |
| 20260830103059 | 73 | 252 | 0.0 | 2.6 | 0.00 | 0.00 | 0.00 | 69 | 1015.3 |
| 20260830101555 | 73 | 315 | 0.0 | 3.5 | 0.00 | 0.00 | 0.00 | 69 | 1015.4 |
| 20260830100057 | 73 | 305 | 1.7 | 4.3 | 0.00 | 0.00 | 0.00 | 66 | 1015.5 |
| 20260830094553 | 72 | 287 | 0.9 | 5.2 | 0.00 | 0.00 | 0.00 | 67 | 1015.5 |
| 20260830093052 | 72 | 275 | 0.0 | 0.9 | 0.00 | 0.00 | 0.00 | 68 | 1015.7 |
| 20260830091553 | 72 | 224 | 0.0 | 5.2 | 0.00 | 0.00 | 0.00 | 68 | 1015.7 |
| 20260830090052 | 72 | 286 | 0.0 | 5.2 | 0.00 | 0.00 | 0.00 | 67 | 1015.7 |
| 20260830084551 | 72 | 248 | 0.0 | 6.1 | 0.00 | 0.00 | 0.00 | 66 | 1015.6 |
| 20260830083055 | 72 | 338 | 0.0 | 3.5 | 0.00 | 0.00 | 0.00 | 65 | 1015.7 |
| 20260830081549 | 72 | 254 | 0.0 | 2.6 | 0.00 | 0.00 | 0.00 | 65 | 1015.7 |
| 20260830080055 | 72 | 240 | 0.9 | 4.3 | 0.00 | 0.00 | 0.00 | 64 | 1015.7 |
| 20260830074559 | 71 | 302 | 0.9 | 4.3 | 0.00 | 0.00 | 0.00 | 67 | 1015.7 |
| 20260830073042 | 70 | 213 | 0.0 | 5.2 | 0.00 | 0.00 | 0.00 | 68 | 1015.7 |
| 20260830071539 | 70 | 289 | 0.0 | 5.2 | 0.00 | 0.00 | 0.00 | 69 | 1015.6 |
| 20260830070039 | 69 | 292 | 0.0 | 3.5 | 0.00 | 0.00 | 0.00 | 71 | 1015.5 |
| 20260830064536 | 67 | 264 | 0.0 | 3.5 | 0.00 | 0.00 | 0.00 | 75 | 1015.6 |
| 20260830063030 | 65 | 346 | 0.0 | 0.0 | 0.00 | 0.00 | 0.00 | 80 | 1015.5 |
| 20260830061532 | 65 | 346 | 0.0 | 0.0 | 0.00 | 0.00 | 0.00 | 83 | 1015.5 |
| 20260830060027 | 64 | 346 | 0.0 | 0.0 | 0.00 | 0.00 | 0.00 | 83 | 1015.6 |
| 20260830054525 | 64 | 346 | 0.0 | 0.0 | 0.00 | 0.00 | 0.00 | 83 | 1015.5 |
| 20260830053024 | 63 | 346 | 0.0 | 0.0 | 0.00 | 0.00 | 0.00 | 85 | 1015.4 |
| 20260830051523 | 63 | 346 | 0.0 | 0.0 | 0.00 | 0.00 | 0.00 | 83 | 1015.4 |
| 20260830050023 | 64 | 346 | 0.0 | 0.0 | 0.00 | 0.00 | 0.00 | 83 | 1015.3 |
| 20260830044522 | 64 | 346 | 0.0 | 0.0 | 0.00 | 0.00 | 0.00 | 82 | 1015.2 |
| 20260830043022 | 64 | 346 | 0.0 | 0.0 | 0.00 | 0.00 | 0.00 | 82 | 1015.3 |
| 20260830041532 | 64 | 346 | 0.0 | 0.0 | 0.00 | 0.00 | 0.00 | 82 | 1015.3 |
| 20260830040024 | 64 | 346 | 0.0 | 0.0 | 0.00 | 0.00 | 0.00 | 81 | 1015.3 |
| 20260830034520 | 64 | 346 | 0.0 | 0.0 | 0.00 | 0.00 | 0.00 | 80 | 1015.2 |
| 20260830033018 | 64 | 346 | 0.0 | 0.0 | 0.00 | 0.00 | 0.00 | 81 | 1015.2 |
| 20260830031518 | 64 | 346 | 0.0 | 0.0 | 0.00 | 0.00 | 0.00 | 81 | 1015.2 |
| 20260830030017 | 64 | 346 | 0.0 | 0.0 | 0.00 | 0.00 | 0.00 | 81 | 1015.2 |
| 20260830024522 | 64 | 346 | 0.0 | 0.0 | 0.00 | 0.00 | 0.00 | 80 | 1015.1 |
| 20260830023016 | 64 | 346 | 0.0 | 0.0 | 0.00 | 0.00 | 0.00 | 79 | 1015.2 |
| 20260830021515 | 64 | 346 | 0.0 | 0.0 | 0.00 | 0.00 | 0.00 | 80 | 1015.1 |
| 20260830020026 | 64 | 346 | 0.0 | 0.0 | 0.00 | 0.00 | 0.00 | 79 | 1015.0 |
| 20260830014514 | 64 | 346 | 0.0 | 0.0 | 0.00 | 0.05 | 0.00 | 79 | 1015.0 |
| 20260830013014 | 64 | 346 | 0.0 | 0.0 | 0.00 | 0.05 | 0.00 | 79 | 1015.0 |
| 20260830011515 | 64 | 346 | 0.0 | 0.0 | 0.00 | 0.05 | 0.00 | 79 | 1014.9 |